Daily Football Fixed Matches

Daily Football Fixed Matches
 

Real Fixed Matches

WhatsApp & Telegram support: +389 78 226 809
Email support: accuratebets1x2@gmail.com

Real Fixed Matches

November archive :

Date Fixed Match Tip Odd FT
01.11.2022 Recoleta – Magallanes 2 2.45 0:2
02.11.2022 Erzeni – Kastrioti X 3.20 1:1
03.11.2022 Padova – Imolese 1 2.40 1:0
04.11.2022 Argentino de Merlo – Laferrere 1 2.90 2:0
05.11.2022 Midland – Claypole 1 2.75 4:1
06.11.2022 Belshina – Slavia Mozyr 2 4.20 1:4
07.11.2022 Jong Utrecht – Eindhoven FC 2 2.40 0:1
08.11.2022 AFC Wimbledon – Leyton Orient (LOSE) 2 2.40 2:0
09.11.2022 Freiburg II – Munich 1860 1 2.50 2:0
10.11.2022 Brasiliense – Vila Nova FC X 3.25 1:1
11.11.2022 Adelaide United – Melbourne Victory 1 3.00 3:0
12.11.2022 Isloch – Zhodino 1 2.80 3:0
13.11.2022 Amelino – Guarani 1 2.45 4:2
14.11.2022 Teuta – Erzeni 2 2.40 1:2
15.11.2022 NO EVENT !
16.11.2022 Rimini – L.R. Vicenza X 3.80 1:1
17.11.2022 Trebisov – Samorin 1 2.75 3:1
18.11.2022 Lechia Gdansk – Gornik Z. 1 2.30 2:1
19.11.2022 Bristol Rovers – Peterborough 1 2.80 1:0
20.11.2022 Foggia – Audace Cerignola 2 3.80 2:3
21.11.2022 Sunderland U21 – Cardiff U21 2 3.10 0:2
22.11.2022 AFC Flyde – Boston Utd 1 2.45 4:1
23.11.2022 Kapaz – Samqayit 1 2.70 1:0
24.11.2022 Capiapo – Cabreloa X 4.60 0:0
25.11.2022 Al Batesh – Al Nasr 1 2.70 2:1
26.11.2022 Karmiotissa – Doxa 1 2.30 2:1
27.11.2022 Triestina – Lecco 2 3.30 1:2
28.11.2022 Pereira – Santa Fe 1 2.55 5:1
29.11.2022 SV Steinbach – Alzenau 1 2.70 3:1
30.11.2022 Atl. Bruces – Comerciantes 2 3.60 1:4

 

October archive :

Date Fixed Match Tip Odd FT
01.10.2022 Laci – Kukesi 2 3.75 0:1
02.10.2022 Slavia Prague 2 – Vyskov 1 2.80 3:1
03.10.2022 Union Santa Fe 2 – Rosario Central 2 1 2.60 1:0
04.10.2022 Fluminense U20 – Cruzeiro U20 1 2.40 4:2
05.10.2022 Tigre 2 – Sarmiento Junin 2 X 3.45 1:1
06.10.2022 Valerenga 2 – Baerum Sportskklub 1 2.80 4:0
07.10.2022 Dender – Beveren 2 2.50 0:3
08.10.2022 San Lorenzo – Velez Sarsfield 1 2.75 1:0
09.10.2022 Stoke City U21 – Norwich U21 (LOSE) 2 2.50 2:2
10.10.2022 Atl. Ottawa – York Utd X 3.90 2:2
11.10.2022 Kelty Hearts – Queen of South 1 3.10 1:0
12.10.2022 Ferro – Almagro 1 2.40 2:0
13.10.2022 Olmedo – Santo Domingo 1 2.45 2:1
14.10.2022 Sk Rapid Vienna (Am) – Horn 2 2.80 0:1
15.10.2022 Altinordu – Samsunspor 1 2.95 2:1
16.10.2022 Aldosivi – Telleres Cordoba 2 3.00 1:3
17.10.2022 Millonarios – Patriotas X 4.60 0:0
18.10.2022 Estrela U23 – Sporting CP U23 1 2.40 1:0
19.10.2022 Werder Bremen II – Jeddeloh 1 2.80 4:1
20.10.2022 BFC Dynamo – Babelsberg 1 2.85 2:1
21.10.2022 Aston Villa U21 – Nottingham U21 X 4.35 1:1
22.10.2022 Londrina – Sport Recife 1 2.60 2:1
23.10.2022 Turris – Crotone 2 2.40 2:4
24.10.2022 Ceara U20 – Cruzeiro U20 1 3.10 4:1
25.10.2022 Olmedo – Ind. Juniors 1 2.55 2:1
26.10.2022 Krsko – Dob 1 2.70 3:2
27.10.2022 Millonarios – Ind. Medellin 2 5.50 1:2
28.10.2022 Jeddeloh– BSV Rehden 1 2.40 1:0
29.10.2022 Teuta – Laci 2 2.60 0:1
30.10.2022 Claypole – Real Pilar X 3.25 1:1
31.10.2022 Bradford PA – Gloucester 1 3.00 2:1

 

September archive :

Date Fixed Match Tip Odd FT
01.09.2022 Vidar – Brodd 1 3.95 0:1
02.09.2022 Lafnitz – First Vienna 1 2.30 3:0
03.09.2022 Deportivo Madryn – Quilmes X 3.30 1:1
04.09.2022 Atletico GO – Atletico-MG 2 2.50 0:2
05.09.2022 Westerlo U21 – RWDM U21 1 2.70 3:2
06.09.2022 All Boys – Brown Adrogue 1 2.40 1:0
07.09.2022 Cartagena – Tigres 2 3.55 0:1
08.09.2022 Mazatlan FC – Atlas 1 2.80 1:0
09.09.2022 Rosario Central 2 – Argentinos Jrs 2 X 3.20 0:0
10.09.2022 Tempere UTD – HJS 1 2.60 4:2
11.09.2022 Varnsdorf – Sigma Olomouc B 1 2.40 1:0
12.09.2022 Stord – Haugesund 2 (LOSE) 2 2.50 4:3
13.09.2022 Chico – Bogota 2 5.60 0:2
14.09.2022 Colon Santa Fe – San Lorenzo X 3.20 0:0
15.09.2022 Liverpool M. – Penarol 2 2.40 0:1
16.09.2022 PEPO – PK-35 1 2.40 4:2
17.09.2022 Alvarado – Quilmes 1 2.90 3:0
18.09.2022 Fermana – Cesena 1 3.25 2:0
19.09.2022 Kukesi – Partizani 2 2.55 1:2
20.09.2022 Leyton Orient – Sutton 1 2.50 3:1
21.09.2022 Rotenberg – Lauterach X 4.80 0:0
22.09.2022 Sola – Vidar 1 3.00 4:3
23.09.2022 Arsenal Sarandi 2 – Sarmiento Junin 2 1 2.30 2:0
24.09.2022 Forest Green – Exeter 2 2.50 0:4
25.09.2022 Criciuma – Chapecoense-SC 1 2.85 2:0
26.09.2022 Petrolera – Junior 2 2.65 0:1
27.09.2022 Ferro – Estudiantes Rio Cuarto X 3.30 0:0
28.09.2022 SJK – KuPS 1 2.70 3:1
29.09.2022 Defensor Sp. – River Plate 1 2.40 2:0
30.09.2022 Tombense – Novorizontino 1 3.20 2:0


August archive :

Date Fixed Match Tip Odd FT
01.08.2022 A. Italiano – O'Higgins 1 2.70 2:1
02.08.2022 Retro – Santa Cruz 2 4.00 1:2
03.08.2022 Skjetten – Mjolner 1 2.85 4:3
04.08.2022 Pro Sesto – Legnano 1 2.40 1:0
05.08.2022 Brusque – Sampaio Correa X 3.10 1:1
06.08.2022 Lamia – Levadikos 1 2.80 2:0
07.08.2022 Valentine – Cooks Hill United 2 2.65 2:3
08.08.2022 Septemvri Sofia – Lok. Sofia 2 2.80 0:3
09.08.2022 Tigres – Quindao 1 3.30 2:0
10.08.2022 FeralpiSalo – Entella 2 3.10 1:2
11.08.2022 Newels Old Boys 2 – River Plate 2 1 2.30 2:0
12.08.2022 B.93 – Roskilde 1 2.50 3:1
13.08.2022 Sacachispas – Belgrano X 3.50 1:1
14.08.2022 Colegiales – San Miguel 1 2.30 2:1
15.08.2022 Arouca – Gil Vicente 1 2.80 1:0
16.08.2022 Charlton – Plymouth 1 2.50 5:1
17.08.2022 Haladas – Zgeged 2 2.95 0:1
18.08.2022 Oeste – Agua Santa X 3.70 1:1
19.08.2022 Manta – Ind. Juniors 2 2.70 1:2
20.08.2022 Sorrento – Perth RedStar 1 2.60 5:2
21.08.2022 Septemvri Sofia – Beroe 1 3.10 3:1
22.08.2022 Ponferradina – UD Ibiza 1 2.40 2:1
23.08.2022 Avai – Internacional 2 2.45 0:1
24.08.2022 Sansinena – Sol de Mayo 2 3.10 1:2
25.08.2022 Buhos ULVR – Manta 1 2.80 2:1
26.08.2022 Leoben – Union Gurten X 3.90 1:1
27.08.2022 Lahden Reipas – JIPPO 1 2.50 1:0
28.08.2022 Guillermo Brown – Chaco For Ever 1 2.40 1:0
29.08.2022 Partizani – Laci 1 2.45 1:0
30.08.2022 Zamalek – Eastern Company 2 4.20 1:2
31.08.2022 Codoy Cruz – Belgrano X 3.30 0:0

 

July Archive :

Date Fixed Match Tip Odd FT
01.07.2022 CA Estudiantes – Agropecuario 1 2.40 2:0
02.07.2022 GrlFK– VJS 1 2.30 2:1
03.07.2022 Chaco For Ever – CA Mitre 1 2.45 1:0
04.07.2022 Guarani – Olimpia Asuncion 2 3.20 0:2
05.07.2022 Selfoss – Vestri 2 2.90 0:1
06.07.2022 Zizkov – Varnsdorf X 5.00 1:1
07.07.2022 Novorizontino – Brusque 1 2.70 1:0
08.07.2022 Pereira – Petrolera 2 3.30 1:2
09.07.2022 Almagro – Villa Dalmine 1 2.40 1:0
10.07.2022 Volda Ti – Hanefoss 1 2.70 3:1
11.07.2022 Queretaro – Necaxa 2 2.90 1:2
12.07.2022 Taunton – Yeovil X 3.50 0:0
13.07.2022 Lanus – Codoy Cruz 2 2.40 1:3
14.07.2022 Junior – Atl. Nacional 1 2.55 3:1
15.07.2022 Venados – Celaya 1 2.60 3:2
16.07.2022 Pyramids – Al Ahly 1 2.80 2:0
17.07.2022 WSC Wels – Vorwarts Steyr 1 3.20 1:0
18.07.2022 Limache – Iberia 2 2.40 0:1
19.07.2022 Central Cordoba 2 – Platense 2 2 2.90 1:3
20.07.2022 Patronato – Tigre 1 2.80 1:0
21.07.2022 FC Buzau – Concordia X 3.70 1:1
22.07.2022 Hadamar – Gonsenheim 1 2.55 2:0
23.07.2022 Atlas – Liniers X 4.00 1:1
24.07.2022 AE Altos – Campinense 1 2.40 1:0
25.07.2022 Huracan 2 – Velez Sarsfield 2 1 2.90 1:0
26.07.2022 Bronshoj – FA 2000 2 2.60 0:3
27.07.2022 Villa Dalmine – Quilmes 1 3.20 2:0
28.07.2022 Belgrano – Ind. Rivadavia X 4.10 1:1
29.07.2022 FK Rostov U19 – Lokomotiv Moscow U19 1 2.45 2:0
30.07.2022 Peninsula – Olympic FC (LOSE) 2 2.80 1:0
31.07.2022 Curico Unido – Everton 2 2.80 0:4

 

June Archive :

Date Fixed Match Tip Odd FT
01.06.2022 Luziense – Ipatinga 2 2.85 1:4
02.06.2022 CRB – CSA X 3.00 0:0
03.06.2022 IL Express – Uradd 1 2.50 2:1
04.06.2022 All Boys – Alvarado 1 2.60 3:1
05.06.2022 Cipolletti – Sol de Mayo X 3.30 1:1
06.06.2022 Levanger – Hodd 1 2.40 2:0
07.06.2022 Latvia U21 – Hungary U21 2 2.30 0:2
08.06.2022 Progresul – Tunari 1 3.00 3:1
09.06.2022 Fjallabyggd – Magni 1 2.70 4:0
10.06.2022 Rosario 2 – Huracan 2 (LOSE) 1 2.40 3:3
11.06.2022 Karlslunde – Young Boys FD 2 2.90 1:2
12.06.2022 Floro – Honefoss X 4.40 0:0
13.06.2022 Santa Fe 2 – Barracas 2 2 3.90 0:1
14.06.2022 Volta Redonda – Remo 1 2.50 3:0
15.06.2022 KTP – Gnistan 1 2.55 4:0
16.06.2022 Samgurali – Dinamo Tbilisi 1 2.90 2:1
17.06.2022 Mississippi Brilla – Texas United 2 4.20 0:1
18.06.2022 Dep. Merlo – Argentino Quilmes 2 3.60 1:2
19.06.2022 Eskilstuna – Sundsvall 1 2.40 2:0
20.06.2022 Brown Adrogue – Def. de Belgrano X 2.90 0:0
21.06.2022 Old Boys – Argentinos Jrs 1 2.70 1:0
22.06.2022 Tromsdalen – Alta 1 3.00 2:0
23.06.2022 CA Liniers – Cipolletti 1 2.45 2:1
24.06.2022 Aldosivi 2 – Racing Club 2 2 2.90 0:3
25.06.2022 Neman – BATE X 3.80 0:0
26.06.2022 Goias – Cuiaba 1 2.50 1:0
27.06.2022 Forde – Molde 2 1 2.70 4:0
28.06.2022 Guangzhou City – Dalian Pro 2 2.30 0:3
29.06.2022 Novorizontino – Vasco 1 3.00 2:0
30.06.2022 Levadia U21 – Flora U21 1 2.65 4:1

 

May Archive :

Date Fixed Match Tip Odd FT
01.05.2022 Gubbio – Lucchese 1 2.30 2:0
02.05.2022 Asteras Tripolis – Lamia 2 4.20 0:2
03.05.2022 Vitebsk 2 – Dnepr 2 1 2.90 3:0
04.05.2022 TPS – Haka X 3.40 1:1
05.05.2022 Wycombe – MK Dons 1 2.70 2:0
06.05.2022 Sedan – Orleans 1 2.70 1:0
07.05.2022 Zlin – Bohemians 2 3.20 1:4
08.05.2022 Wrexham – Stockport 1 2.50 3:0
09.05.2022 Leczna – Termalica B-B X 3.85 1:1
10.05.2022 Brisbane Roar – Sydney FC 1 2.40 3:1
11.05.2022 York – Chorley 1 2.30 2:1
12.05.2022 Santos DG – Grecia 1 3.00 2:0
13.05.2022 Vocklarmarkt – SC Weiz 2 3.10 0:1
14.05.2022 Vlasim – Opava 1 2.40 3:1
15.05.2022 Wolfurt – Rankweil 1 2.80 2:1
16.05.2022 Ol. Nicosia – Achnas X 3.40 1:1
17.05.2022 FeralpiSalo – Reggiana 1 2.75 1:0
18.05.2022 Orgryte – Trelleborgs 2 2.60 1:2
19.05.2022 Ural 2 – Novosibirsk 1 3.00 2:0
20.05.2022 Drogheda – Finn Harps 1 2.40 3:1
21.05.2022 Middelfart – Skive X 3.50 1:1
22.05.2022 Polkowice – Legnica 2 3.10 0:1
23.05.2022 Wolves U23 – Stoke City U23 1 2.30 2:0
24.05.2022 Kopavogur – Grotta 1 2.90 3:1
25.05.2022 JIPPO – Atlantis 2 3.75 1:3
26.05.2022 Tirol – Rapid Vienna 2 2.50 1:2
27.05.2022 UC Dublin – Sligo Rovers X 4.00 1:1
28.05.2022 AC Oulu – HJK 1 2.80 1:0
29.05.2022 Teplice B – Dukla Prague B 1 2.30 2:1
30.05.2022 Fenix – Rentistas 1 3.00 2:1
31.05.2022 Perth SC – Armadale 2 4.10 0:3

 

April Archive :

Date Fixed Match Tip Odd FT
01.04.2022 Cartagena – Llaneros 1 2.40 2:0
02.04.2022 Dukla Prague – Lisen 1 2.90 4:2
03.04.2022 Helsingor – Horsens 2 3.60 0:1
04.04.2022 Jong Utrecht – Roda 1 2.30 1:0
05.04.2022 Oberhausen – RW Essen X 3.80 1:1
06.04.2022 Dunfermline – Raith 1 2.50 2:0
07.04.2022 MATCH POSTPONED -.– -:-
08.04.2022 Lahti – VPS 2 4.50 0:5
09.04.2022 AEL Limassol – Achnas 1 2.60 2:0
10.04.2022 Sandhausen – Dynamo Dresden 1 2.75 2:1
11.04.2022 Stabaek – Sogndal X 3.50 0:0
12.04.2022 Rangers – Deportes Temuco 1 2.40 3:2
13.04.2022 Kalamata – Levadiakos 1 2.60 1:0
14.04.2022 Gefle – Taby 2 5.00 1:2
15.04.2022 Cork City – Bray X 3.70 0:0
16.04.2022 Paks – MTK Budapest 1 2.30 4:0
17.04.2022 Union Adarve – Leganes B 1 2.70 2:1
18.04.2022 Barnet – Southend 2 2.60 1:3
19.04.2022 Grenoble – Valenciennes 1 3.20 3:0
20.04.2022 Patronato – Racing Club 2 2.40 2:3
21.04.2022 Lok. Plovdiv – Beroe X 2.90 1:1
22.04.2022 Nimes – Rodez 1 3.20 3:2
23.04.2022 Jihlava – Prostejov 1 2.35 1:0
24.04.2022 Nacional – SC Farense 1 3.00 3:2
25.04.2022 Como – L.R. Vicenza 2 2.50 0:2
26.04.2022 Bromley – Aldershot X 4.00 1:1
27.04.2022 Elblag – Pruszkow 1 2.80 2:0
28.04.2022 KTP – TPS X 2.90 0:0
29.04.2022 Cholet – Le Mans 1 2.40 1:0
30.04.2022 Slaven Belupo – Gorica 1 3.00 2:1

 

March Archive :

DATE FIXED MATCH TIP ODD FT
01.03.2022 Creteil – Sete 1 2.70 3:1
02.03.2022 AEL Limassol – Apollon 1 2.55 1:0
03.03.2022 Tondela – Mafra 1 2.90 3:0
04.03.2022 Gyirmot – MTK Budapest X 3.40 1:1
05.03.2022 Lierse K. – Lommel SK 2 2.80 0:2
06.03.2022 Vendsyssel – Esbjerg 1 2.40 1:0
07.03.2022 R. Volgograd – Tomsk 2 4.20 1:5
08.03.2022 AL Ahly – Pyramids 1 2.30 3:0
09.03.2022 Dundee FC – St. Mirren 2 2.90 0:1
10.03.2022 Torino U19 – Sassuolo U19 1 2.60 1:0
11.03.2022 Bastia-Borgo – Orleans X 3.60 2:2
12.03.2022 Heidenheim – Werder Bremen 1 3.40 2:1
13.03.2022 Randers FC – Silkeborg 1 2.35 2:1
14.03.2022 Sligo Rovers – Finn Harps 1 2.40 3:1
15.03.2022 Fermana – Teramo 2 2.90 0:1
16.03.2022 Cardiff – Stoke 1 3.00 2:1
17.03.2022 PAOK B – AO Trikala 1 2.40 3:0
18.03.2022 Achnas – Doxa X 3.40 0:0
19.03.2022 Barrow – Carlisle (LOSE) 1 2.50 1:2
20.03.2022 Sigma Olomouc – Liberec 1 2.30 1:0
21.03.2022 Mouscron U21 – Oostende U21 2 2.80 0:1
22.03.2022 Dunfermline – Partick Thistle 1 2.60 4:1
23.03.2022 TPS – HIFK 1 4.25 1:0
24.03.2022 Corinthians – Guarani X 3.30 1:1
25.03.2022 Newcastle Jets – Sydney FC 1 2.90 2:0
26.03.2022 Shrewsbury – Lincoln 1 2.30 1:0
27.03.2022 Volos – Kavala 2 3.00 0:2
28.03.2022 Stabaek – Kongsvinger 1 2.30 2:0
29.03.2022 Oldham – Leyton Orient 1 2.80 2:0
30.03.2022 Picerno – Campobasso 1 2.60 3:2
31.03.2022 Meinerzhagen – Clarholz X 4.00 0:0

 

February Archive :

DATE FIXED MATCH TIP ODD FT
01.02.2022 Piacenza – Virtus Verona 1 2.50 1:0
02.02.2022 Duisburg – VFL Osnabruck 2 2.60 3:6
03.02.2022 Bodo/Glimt – Aarhus 1 2.50 1:0
04.02.2022 Lierse – K. Deinze X 3.60 1:1
05.02.2022 St Etienne – Montpellier 1 2.55 3:1
06.02.2022 Mezokovesd – Puskas Academy 2 3.20 1:2
07.02.2022 Panafiel – Trofense 1 2.80 1:0
08.02.2022 Honka – Haka X 3.00 1:1
09.02.2022 Welington P. – Melbourne V. 1 2.70 1:0
10.02.2022 Astromitos – Lamia 1 2.40 3:1
11.02.2022 Glentoran – Linfield 1 2.60 1:0
12.02.2022 Leyton Orient – Salford 2 3.80 0:2
13.02.2022 Sigma – Mlada Boleslav 1 2.40 2:1
14.02.2022 Aluminij – Radomlje 2 2.80 0:4
15.02.2022 Cremonese – Parma 1 2.20 3:1
16.02.2022 Alessandria – Lecce X 3.30 1:1
17.02.2022 APOEL – Anorthosis 2 3.10 0:1
18.02.2022 Zaglebie – Wisla Plock 1 2.30 3:1
19.02.2022 Hamilton – Morton 1 2.55 1:0
20.02.2022 Zwolle – Groningen X 3.70 1:1
21.02.2022 Jong Utrecht – Excelsior 2 2.40 0:1
22.02.2022 Schaffhausen – Thun 1 2.50 1:0
23.02.2022 Piacenza – Triestina 2 2.60 0:2
24.02.2022 Lucchese – Entella 1 3.50 3:0
25.02.2022 Bastia-Borgo – Chamby 1 2.30 4:0
26.02.2022 Bradford City – Mansfield 2 2.70 0:2
27.02.2022 Le Mans – Laval 1 2.75 2:0
28.02.2022 Bradford City – Mansfield X 3.40 0:0

 

Daily Football Fixed Matches